Regional Weather Roundup
Issued by NWS

Home | Current Version | Previous Version | Graphics & Text | Print | Product List | Glossary On
Versions: 1 2 3 4 5 6 7 8 9 10 11 12 13 14 15 16 17 18 19 20 21 22 23 24 25 26 27 28 29 30 31 32 33 34 35 36 37 38 39 40 41 42 43 44 45 46 47 48 49 50
225
ASUS44 KMEG 011000
RWRTN
TENNESSEE HOURLY STATE WEATHER ROUNDUP
NATIONAL WEATHER SERVICE MEMPHIS TN
500 AM CDT SUN MAY 01 2016

TNZ002-004-019-021-049-052-054-088>092-011100-
WEST TENNESSEE

CITY           SKY/WX    TMP DP  RH WIND       PRES   REMARKS
MEMPHIS INTL   CLOUDY    66  63  90 S6        29.89R
NWS MEMPHIS      N/A     64 N/A N/A MISG        N/A
JACKSON        CLOUDY    65  63  93 SW7       29.90R
DYERSBURG      PTCLDY    63  61  94 CALM        N/A
$$

TNZ008-025-027-028-033-062-065-066-011100-
NORTH MIDDLE TENNESSEE

CITY           SKY/WX    TMP DP  RH WIND       PRES   REMARKS
NASHVILLE      PTCLDY    66  62  87 CALM      29.92R
CLARKSVILLE    FOG       59  58  96 CALM      29.89S VSB 1/4
CROSSVILLE     CLEAR     72  62  71 VRB5      29.99R
$$

TNZ061-075-076-078-094-096-097-011100-
SOUTH MIDDLE TENNESSEE

CITY           SKY/WX    TMP DP  RH WIND       PRES   REMARKS
TULLAHOMA      CLEAR     64  64 100 S6        29.96S
SHELBYVILLE    CLEAR     66  66 100 S7        29.95R
$$

TNZ017-018-042-046-047-011100-
NORTHEAST TENNESSEE

CITY           SKY/WX    TMP DP  RH WIND       PRES   REMARKS
TRI CITIES     LGT RAIN  60  58  92 N3        29.98S
$$

TNZ012-013-036-069-073-074-011100-
CENTRAL EAST TENNESSEE

CITY           SKY/WX    TMP DP  RH WIND       PRES   REMARKS
KNOXVILLE      FOG       63  62  97 S3        29.96R VSB 1/4
OAK RIDGE      FOG       63  61  93 CALM      29.98R VSB 1/4
$$

TNZ083-085-099-011100-
SOUTHEAST TENNESSEE

CITY           SKY/WX    TMP DP  RH WIND       PRES   REMARKS
CHATTANOOGA    MOCLDY    65  62  90 W3        29.97R
$$

SKY/WX REPORTED AS FAIR MEANS FEW OR NO CLOUDS BELOW
12 THOUSAND FEET.





USA.gov is the U.S. government's official web portal to all federal, state and local government web resources and services.